N3AVN Weather Reports


time (UTC)temp
F
wind
direction
speed
knots
gust
knots
rain 1hr
in
rain 24hr
in
rain mn
in
humidity
%
barometer
mb
20260505121803 59 150 3.5 7.8 0.00 0.00 0.00 80 1009.1
20260505121300 58 345 0.9 7.8 0.00 0.00 0.00 82 1009.2
20260505120756 57 138 4.3 6.1 0.00 0.00 0.00 84 1009.1
20260505120253 57 81 4.3 7.8 0.00 0.00 0.00 84 1009.2
20260505115751 57 157 5.2 5.2 0.00 0.00 0.00 84 1008.9
20260505115249 56 15 0.9 3.5 0.00 0.00 0.00 85 1009.1
20260505114746 56 210 3.5 4.3 0.00 0.00 0.00 86 1009.0
20260505114241 55 76 3.5 4.3 0.00 0.00 0.00 88 1009.2
20260505113739 55 24 1.7 5.2 0.00 0.00 0.00 88 1009.4
20260505113236 54 99 0.0 3.5 0.00 0.00 0.00 89 1009.3
20260505112731 54 245 1.7 5.2 0.00 0.00 0.00 90 1009.1
20260505112230 53 116 3.5 4.3 0.00 0.00 0.00 91 1009.1
20260505111729 52 135 1.7 5.2 0.00 0.00 0.00 92 1009.0
20260505111225 52 90 2.6 3.5 0.00 0.00 0.00 93 1009.1
20260505110721 51 98 0.0 1.7 0.00 0.00 0.00 94 1009.1
20260505110219 51 111 0.9 1.7 0.00 0.00 0.00 94 1009.0
20260505102155 48 29 0.0 1.7 0.00 0.00 0.00 97 1008.6
20260505101654 48 180 1.7 1.7 0.00 0.00 0.00 97 1008.6
20260505101149 46 66 0.0 0.9 0.00 0.00 0.00 97 1008.6
20260505100645 46 159 1.7 1.7 0.00 0.00 0.00 97 1008.7
20260505100143 46 90 0.0 1.7 0.00 0.00 0.00 97 1008.6
20260505095638 46 114 0.0 1.7 0.00 0.00 0.00 96 1008.6
20260505095136 45 126 0.9 1.7 0.00 0.00 0.00 96 1008.9
20260505094632 46 206 0.0 0.9 0.00 0.00 0.00 96 1008.8
20260505094128 46 120 0.0 0.9 0.00 0.00 0.00 96 1008.7
20260505093624 45 7 0.0 0.0 0.00 0.00 0.00 96 1008.4
20260505093121 45 83 0.0 1.7 0.00 0.00 0.00 96 1008.5
20260505092619 45 203 0.0 0.0 0.00 0.00 0.00 96 1008.6
20260505092118 45 165 0.0 0.9 0.00 0.00 0.00 95 1008.8
20260505091614 45 160 0.0 0.0 0.00 0.00 0.00 95 1008.6
20260505091112 45 165 0.0 1.7 0.00 0.00 0.00 95 1008.6
20260505090610 45 135 1.7 1.7 0.00 0.00 0.00 95 1008.7
20260505090108 45 145 0.0 1.7 0.00 0.00 0.00 95 1008.6
20260505085605 46 106 0.0 0.9 0.00 0.00 0.00 95 1008.5
20260505085103 46 90 1.7 1.7 0.00 0.00 0.00 95 1008.5
20260505084601 46 151 0.9 1.7 0.00 0.00 0.00 95 1008.5
20260505084059 46 7 0.0 0.9 0.00 0.00 0.00 95 1008.5
20260505083555 46 114 0.9 1.7 0.00 0.00 0.00 95 1008.5
20260505083052 46 90 0.9 1.7 0.00 0.00 0.00 95 1008.5
20260505082548 46 180 0.0 1.7 0.00 0.00 0.00 95 1008.7
20260505082045 46 144 1.7 1.7 0.00 0.00 0.00 95 1008.7
20260505081541 46 126 0.0 1.7 0.00 0.00 0.00 95 1008.6
20260505081039 46 157 0.0 0.9 0.00 0.00 0.00 95 1008.7
20260505080535 46 187 0.9 0.9 0.00 0.00 0.00 94 1008.7
20260505080032 46 165 0.0 0.0 0.00 0.00 0.00 94 1008.8
20260505075527 46 151 0.0 0.9 0.00 0.00 0.00 94 1008.6
20260505075025 46 186 0.0 0.9 0.00 0.00 0.00 94 1008.6
20260505074522 46 203 0.0 0.9 0.00 0.00 0.00 94 1008.7
20260505074019 46 180 0.0 1.7 0.00 0.00 0.00 94 1008.8
20260505073516 46 203 0.0 1.7 0.00 0.00 0.00 94 1008.8
20260505073015 46 107 1.7 1.7 0.00 0.00 0.00 93 1008.7
20260505072510 46 165 0.0 1.7 0.00 0.00 0.00 94 1008.8
20260505072006 46 106 0.0 0.0 0.00 0.00 0.00 93 1008.8
20260505071502 46 151 0.0 0.9 0.00 0.00 0.00 93 1008.6
20260505071000 46 187 0.9 1.7 0.00 0.00 0.00 93 1008.8
20260505070457 46 98 0.0 0.9 0.00 0.00 0.00 93 1008.7
20260505065952 46 165 0.0 1.7 0.00 0.00 0.00 92 1008.7
20260505065449 47 165 0.0 0.9 0.00 0.00 0.00 92 1008.7
20260505064946 47 148 0.9 1.7 0.00 0.00 0.00 92 1008.7
20260505064442 47 145 0.9 1.7 0.00 0.00 0.00 92 1008.9
20260505063941 47 166 0.9 0.9 0.00 0.00 0.00 92 1008.8
20260505063437 47 147 0.0 1.7 0.00 0.00 0.00 92 1008.7
20260505062933 47 151 0.0 0.9 0.00 0.00 0.00 91 1008.8
20260505062430 47 165 0.0 0.9 0.00 0.00 0.00 91 1008.7
20260505061927 47 194 0.0 1.7 0.00 0.00 0.00 91 1008.8
20260505061425 47 165 1.7 1.7 0.00 0.00 0.00 90 1008.7
20260505060923 48 172 0.0 0.0 0.00 0.00 0.00 90 1008.7
20260505060419 48 187 0.0 0.9 0.00 0.00 0.00 89 1008.9
20260505055916 48 131 0.0 1.7 0.00 0.00 0.00 89 1009.2
20260505055412 48 240 0.0 0.0 0.00 0.00 0.00 88 1009.1
20260505054909 49 240 0.0 0.9 0.00 0.00 0.00 87 1009.1
20260505054407 49 195 0.0 0.9 0.00 0.00 0.00 87 1009.0
20260505053905 50 145 0.0 1.7 0.00 0.00 0.00 85 1009.2
20260505053401 50 126 0.0 0.9 0.00 0.00 0.00 84 1009.1
20260505052858 51 180 0.0 0.9 0.00 0.00 0.00 83 1009.3
20260505052354 51 165 0.0 1.7 0.00 0.00 0.00 82 1009.4
20260505051852 52 180 0.0 1.7 0.00 0.00 0.00 80 1009.1
20260505051349 52 243 0.0 1.7 0.00 0.00 0.00 80 1009.2
20260505050847 52 180 0.0 1.7 0.00 0.00 0.00 80 1009.3
20260505050345 52 356 0.0 1.7 0.00 0.00 0.00 80 1009.4
20260505041312 52 169 0.9 2.6 0.00 0.00 0.00 80 1009.5
20260505040809 52 98 0.0 1.7 0.00 0.00 0.00 79 1009.5
20260505040308 52 102 0.0 1.7 0.00 0.00 0.00 79 1009.7
20260505035804 53 35 0.0 2.6 0.00 0.00 0.00 78 1009.5
20260505035259 53 111 0.9 3.5 0.00 0.00 0.00 78 1009.3
20260505034757 53 82 0.0 2.6 0.00 0.00 0.00 77 1009.3
20260505034254 53 56 1.7 1.7 0.00 0.00 0.00 77 1009.2
20260505033750 53 120 0.0 0.9 0.00 0.00 0.00 77 1009.3
20260505033248 52 157 0.0 1.7 0.00 0.00 0.00 78 1009.3
20260505032746 52 165 0.0 0.9 0.00 0.00 0.00 77 1009.2
20260505032241 53 94 1.7 2.6 0.00 0.00 0.00 76 1009.4
20260505031739 54 185 1.7 1.7 0.00 0.00 0.00 75 1009.2
20260505031235 54 206 0.0 0.9 0.00 0.00 0.00 74 1009.2
20260505030732 54 90 0.0 1.7 0.00 0.00 0.00 74 1009.4
20260505030228 54 99 0.0 2.6 0.00 0.00 0.00 73 1009.1
20260505025724 54 90 1.7 1.7 0.00 0.00 0.00 72 1009.2
20260505025222 55 90 0.0 2.6 0.00 0.00 0.00 71 1009.2
20260505024721 55 128 1.7 1.7 0.00 0.00 0.00 71 1009.1
20260505024217 55 69 0.0 1.7 0.00 0.00 0.00 70 1008.9
20260505023714 55 100 1.7 1.7 0.00 0.00 0.00 70 1009.1
20260505023212 56 203 0.0 2.6 0.00 0.00 0.00 69 1009.3
20260505022709 56 81 0.0 3.5 0.00 0.00 0.00 68 1009.1
20260505022206 56 90 2.6 2.6 0.00 0.00 0.00 68 1009.3
20260505021702 56 115 2.6 4.3 0.00 0.00 0.00 67 1009.3
20260505021159 57 208 1.7 2.6 0.00 0.00 0.00 67 1009.3
20260505020656 57 79 2.6 3.5 0.00 0.00 0.00 66 1009.4
20260505020151 57 203 0.0 2.6 0.00 0.00 0.00 66 1009.3
20260505015649 57 90 0.0 3.5 0.00 0.00 0.00 65 1008.9
20260505015145 57 198 0.9 1.7 0.00 0.00 0.00 65 1009.1
20260505014642 58 233 1.7 3.5 0.00 0.00 0.00 64 1009.1
20260505014140 58 166 0.9 4.3 0.00 0.00 0.00 63 1009.1
20260505013637 58 173 0.9 2.6 0.00 0.00 0.00 63 1009.2
20260505013133 58 16 0.0 3.5 0.00 0.00 0.00 63 1009.0
20260505012632 59 215 0.0 4.3 0.00 0.00 0.00 62 1008.8
20260505012128 59 32 1.7 2.6 0.00 0.00 0.00 61 1009.0
20260505011623 59 90 2.6 6.1 0.00 0.00 0.00 60 1008.5
20260505011121 59 215 0.0 3.5 0.00 0.00 0.00 60 1008.5
20260505010617 60 32 1.7 1.7 0.00 0.00 0.00 60 1008.6
20260505010114 60 208 1.7 7.8 0.00 0.00 0.00 59 1008.5
20260505005610 60 67 0.0 5.2 0.00 0.00 0.00 59 1008.2
20260505005107 60 12 2.6 7.0 0.00 0.00 0.00 58 1008.3
20260505004604 60 139 3.5 3.5 0.00 0.00 0.00 59 1008.1
20260505004101 60 54 3.5 6.1 0.00 0.00 0.00 58 1008.0
20260505003558 61 125 2.6 8.7 0.00 0.00 0.00 57 1008.0
20260505003055 61 108 3.5 6.1 0.00 0.00 0.00 57 1007.7
20260505002550 61 229 2.6 4.3 0.00 0.00 0.00 56 1007.8
20260505002049 61 304 0.0 7.8 0.00 0.00 0.00 56 1007.8
20260505001545 62 135 2.6 9.6 0.00 0.00 0.00 55 1007.7
20260505001043 62 54 3.5 6.1 0.00 0.00 0.00 55 1007.5
20260505000540 62 239 7.8 9.6 0.00 0.00 0.00 54 1007.6
20260505000038 62 125 0.0 6.1 0.00 0.00 0.00 54 1007.4
20260504235534 63 337 1.7 9.6 0.00 0.00 0.00 53 1007.4
20260504235031 63 188 4.3 7.0 0.00 0.00 0.00 53 1007.3
20260504234528 63 135 4.3 6.1 0.00 0.00 0.00 52 1007.3
20260504234025 64 160 7.0 10.4 0.00 0.00 0.00 51 1007.3
20260504233520 64 87 2.6 4.3 0.00 0.00 0.00 51 1007.0
20260504233017 64 74 0.0 6.1 0.00 0.00 0.00 49 1006.9
20260504232514 65 232 5.2 7.8 0.00 0.00 0.00 49 1006.8
20260504232012 65 103 2.6 5.2 0.00 0.00 0.00 49 1006.7
20260504231508 65 0 4.3 7.8 0.00 0.00 0.00 48 1006.5
20260504231004 66 14 0.9 5.2 0.00 0.00 0.00 47 1006.4
20260504230501 66 7 0.9 7.8 0.00 0.00 0.00 47 1006.5
20260504230000 66 257 7.8 12.2 0.00 0.00 0.00 46 1006.5
20260504225456 66 143 4.3 5.2 0.00 0.00 0.00 46 1006.4
20260504224954 67 307 2.6 11.3 0.00 0.00 0.00 45 1006.2
20260504224450 67 150 5.2 10.4 0.00 0.00 0.00 45 1006.4
20260504223947 67 214 7.0 8.7 0.00 0.00 0.00 45 1006.3
20260504223443 67 349 1.7 6.1 0.00 0.00 0.00 45 1006.2
20260504222939 67 273 2.6 6.1 0.00 0.00 0.00 44 1006.1
20260504222437 68 208 5.2 13.0 0.00 0.00 0.00 44 1006.2
20260504221934 68 120 2.6 9.6 0.00 0.00 0.00 43 1006.1
20260504221431 69 180 2.6 7.8 0.00 0.00 0.00 43 1006.3
20260504220928 69 230 0.0 13.0 0.00 0.00 0.00 41 1006.2
20260504220425 70 144 4.3 11.3 0.00 0.00 0.00 41 1006.0
20260504215922 71 82 7.0 8.7 0.00 0.00 0.00 39 1006.1
20260504215418 73 233 2.6 7.0 0.00 0.00 0.00 32 1006.2
20260504214915 73 214 2.6 3.5 0.00 0.00 0.00 32 1006.0
20260504214411 73 265 1.7 4.3 0.00 0.00 0.00 32 1006.2
20260504213908 72 180 1.7 5.2 0.00 0.00 0.00 32 1006.0
20260504213404 72 238 0.0 7.0 0.00 0.00 0.00 32 1006.2
20260504212902 72 348 0.0 2.6 0.00 0.00 0.00 33 1006.2
20260504212357 72 314 4.3 9.6 0.00 0.00 0.00 33 1006.2
20260504211855 72 342 2.6 7.8 0.00 0.00 0.00 32 1006.2
20260504211351 72 154 0.0 6.1 0.00 0.00 0.00 33 1006.2
20260504210849 72 229 2.6 4.3 0.00 0.00 0.00 33 1006.3
20260504210346 73 258 4.3 7.0 0.00 0.00 0.00 32 1006.3
20260504205843 72 203 0.0 5.2 0.00 0.00 0.00 32 1006.2
20260504205341 72 348 0.9 7.0 0.00 0.00 0.00 33 1006.4
20260504204838 72 236 4.3 8.7 0.00 0.00 0.00 32 1006.2
20260504204337 74 267 2.6 4.3 0.00 0.00 0.00 30 1006.4
20260504203836 74 201 2.6 8.7 0.00 0.00 0.00 32 1006.2
20260504203332 73 232 5.2 12.2 0.00 0.00 0.00 33 1006.3
20260504202828 73 232 3.5 7.8 0.00 0.00 0.00 32 1006.2
20260504202326 73 279 1.7 7.8 0.00 0.00 0.00 31 1006.4
20260504201822 74 257 5.2 8.7 0.00 0.00 0.00 30 1006.3
20260504201319 75 216 7.0 7.8 0.00 0.00 0.00 31 1006.3
20260504200817 73 313 5.2 10.4 0.00 0.00 0.00 31 1006.6
20260504200313 74 229 0.0 6.1 0.00 0.00 0.00 30 1006.4
20260504195809 74 266 4.3 5.2 0.00 0.00 0.00 31 1006.5
20260504195305 73 270 6.1 9.6 0.00 0.00 0.00 32 1006.5
20260504194802 74 194 0.9 8.7 0.00 0.00 0.00 31 1006.4
20260504194258 75 119 5.2 6.1 0.00 0.00 0.00 32 1006.4
20260504193754 73 315 1.7 7.8 0.00 0.00 0.00 32 1006.6
20260504193252 74 253 9.6 9.6 0.00 0.00 0.00 32 1006.7
20260504192750 73 252 4.3 10.4 0.00 0.00 0.00 31 1006.8
20260504192248 73 245 4.3 9.6 0.00 0.00 0.00 31 1006.8
20260504191747 74 206 3.5 7.8 0.00 0.00 0.00 32 1006.6
20260504191243 73 212 7.8 12.2 0.00 0.00 0.00 32 1006.6
20260504190739 74 175 2.6 5.2 0.00 0.00 0.00 33 1006.9
20260504190235 74 234 2.6 7.8 0.00 0.00 0.00 31 1006.7
20260504185732 72 223 11.3 13.0 0.00 0.00 0.00 31 1006.8
20260504185229 72 264 8.7 14.8 0.00 0.00 0.00 32 1006.9
20260504184725 73 209 3.5 7.8 0.00 0.00 0.00 31 1006.7
20260504184221 73 315 3.5 6.1 0.00 0.00 0.00 33 1006.7
20260504183717 72 45 2.6 11.3 0.00 0.00 0.00 32 1006.9
20260504183214 72 219 4.3 7.8 0.00 0.00 0.00 31 1006.8
20260504182712 73 240 5.2 5.2 0.00 0.00 0.00 32 1007.1
20260504182209 73 258 3.5 5.2 0.00 0.00 0.00 32 1007.1
20260504181707 73 310 3.5 13.0 0.00 0.00 0.00 31 1007.1
20260504181204 71 246 0.0 7.8 0.00 0.00 0.00 34 1007.2
20260504180703 72 310 4.3 13.9 0.00 0.00 0.00 32 1007.4
20260504180201 73 205 4.3 7.0 0.00 0.00 0.00 31 1007.2
20260504175658 73 312 1.7 8.7 0.00 0.00 0.00 32 1007.2
20260504175154 72 0 1.7 12.2 0.00 0.00 0.00 32 1007.4
20260504174653 71 351 4.3 7.8 0.00 0.00 0.00 32 1007.5
20260504174149 71 330 3.5 11.3 0.00 0.00 0.00 32 1007.5
20260504173646 71 240 6.1 7.8 0.00 0.00 0.00 35 1007.6
20260504173144 71 241 6.1 11.3 0.00 0.00 0.00 33 1007.4
20260504172640 70 318 2.6 5.2 0.00 0.00 0.00 32 1007.6
20260504172137 71 303 1.7 8.7 0.00 0.00 0.00 33 1007.5
20260504171633 70 262 12.2 13.9 0.00 0.00 0.00 31 1007.7
20260504171131 70 249 4.3 15.6 0.00 0.00 0.00 33 1007.7
20260504170627 70 225 7.8 14.8 0.00 0.00 0.00 31 1007.9
20260504170124 71 323 0.0 4.3 0.00 0.00 0.00 33 1007.9
20260504151010 66 228 1.7 4.3 0.00 0.00 0.00 37 1009.1
20260504150507 65 149 10.4 10.4 0.00 0.00 0.00 36 1009.4
20260504140927 64 303 5.2 9.6 0.00 0.00 0.00 39 1009.7
20260504140424 64 8 0.0 9.6 0.00 0.00 0.00 37 1009.8
20260504130349 60 201 1.7 8.7 0.00 0.00 0.00 42 1010.4